Powrót do katalogu

DELTA 1 DEB

AktywnySSO
NORAD 21678·DEBRIS·🇺🇸 United States

Wystrzelony Jun 12, 1975 z Vandenberg Space Force Base

Loading…

Następne Przeloty (najbliższe 24 godziny)

TLE

ŚwieżeSource: Space-Track

Epoka: Sep 14, 2026, 14:31 UTC

1 21678U 75052JE  26257.60486437  .00001564  00000-0  28676-2 0  9990
2 21678 100.0174 163.2285 0354639  94.6940  22.1700 13.20108619688306

Śledź DELTA 1 DEB w czasie rzeczywistym z AllMySat

Download on the App Store